Dewpoint
-18 -18 -19 -20 -20 -22 -22 -23 -23 -22 -21 -21 -22 -23 -21 -19 -19 -19 -19 -18 -18 -18 -19 -19 -20 -20 -21 -20 -21 -20 -18 -17 -15 -14 -13 -12 -11 -10 -9 -8 -11 -11 -11 -12 -12 -12 -11 -11 -11 -12 -12 -13 -7 -9 -9 -11 -10 -10 -10 -9 -10 -9 -9 -12 -14 -14 -13 -14 -14 -13 -13 -15 -13 -13 -11 -11 -11 -13 -4 -14 -13 -11 -9 -9 -9
-20 -21 -21 -22 -23 -24 -24 -25 -25 -24 -23 -22 -22 -23 -22 -20 -19 -19 -19 -18 -19 -20 -20 -20 -21 -21 -21 -22 -21 -19 -18 -17 -15 -15 -14 -12 -11 -10 -9 -12 -13 -13 -12 -13 -14 -14 -14 -13 -12 -12 -11 -15 -10 -13 -10 -12 -10 -11 -12 -10 -10 -11 -10 -11 -14 -13 -15 -13 -14 -15 -16 -17 -17 -16 -13 -12 -11 -10 -11 -11 -11 -12 -11 -9 -8
-22 -23 -23 -24 -25 -25 -26 -25 -25 -24 -23 -23 -22 -22 -20 -20 -20 -20 -19 -18 -19 -21 -21 -21 -21 -21 -22 -22 -21 -20 -18 -18 -16 -15 -14 -13 -12 -10 -12 -14 -15 -14 -13 -13 -14 -15 -15 -14 -13 -14 -13 -16 -13 -13 -12 -13 -12 -12 -14 -12 -11 -11 -10 -11 -13 -15 -15 -16 -16 -19 -19 -20 -20 -19 -17 -14 -11 -11 -11 -11 -12 -13 -11 -10 -10
-22 -23 -24 -25 -26 -26 -26 -26 -25 -24 -24 -23 -22 -21 -20 -20 -19 -19 -19 -20 -21 -21 -21 -22 -23 -23 -23 -23 -22 -21 -20 -18 -18 -17 -15 -13 -12 -12 -16 -16 -16 -16 -14 -13 -14 -15 -16 -16 -15 -16 -16 -17 -16 -14 -13 -15 -14 -13 -15 -13 -12 -11 -14 -14 -14 -15 -16 -18 -18 -20 -19 -20 -20 -19 -19 -17 -14 -12 -13 -12 -11 -9 -11 -12 -12
-24 -25 -25 -26 -26 -27 -26 -25 -25 -24 -24 -23 -22 -21 -20 -20 -19 -21 -21 -22 -22 -22 -21 -22 -24 -24 -24 -23 -23 -22 -21 -20 -19 -18 -16 -13 -12 -15 -17 -17 -18 -17 -15 -15 -15 -16 -16 -17 -18 -18 -19 -19 -18 -16 -15 -18 -16 -16 -17 -14 -14 -15 -16 -15 -15 -16 -17 -19 -18 -18 -20 -20 -21 -21 -21 -21 -19 -15 -14 -13 -12 -11 -11 -12 -13
-25 -26 -26 -26 -26 -26 -26 -25 -24 -24 -23 -23 -22 -21 -21 -21 -21 -21 -22 -23 -23 -22 -22 -23 -24 -25 -25 -24 -23 -23 -22 -21 -20 -18 -14 -13 -14 -17 -17 -17 -18 -17 -16 -16 -17 -17 -18 -20 -20 -20 -20 -21 -20 -19 -19 -19 -18 -18 -19 -18 -18 -18 -18 -18 -16 -17 -18 -18 -19 -19 -19 -20 -21 -21 -22 -21 -20 -18 -16 -14 -13 -12 -11 -12 -11
-25 -25 -25 -25 -25 -26 -26 -25 -24 -24 -23 -23 -22 -22 -22 -22 -22 -22 -22 -23 -24 -23 -23 -25 -25 -25 -25 -25 -23 -22 -22 -21 -20 -18 -15 -13 -17 -18 -19 -20 -20 -18 -18 -18 -18 -19 -20 -21 -21 -21 -21 -21 -21 -20 -21 -18 -19 -21 -19 -22 -19 -22 -20 -21 -19 -19 -19 -20 -20 -19 -19 -19 -20 -20 -20 -21 -20 -18 -17 -16 -15 -14 -12 -12 -12
-24 -24 -25 -25 -25 -25 -24 -24 -24 -23 -23 -22 -22 -22 -23 -23 -22 -22 -22 -23 -23 -24 -24 -25 -25 -25 -24 -25 -24 -22 -22 -22 -20 -18 -15 -17 -19 -21 -21 -21 -20 -20 -19 -19 -19 -21 -22 -23 -23 -21 -22 -19 -19 -20 -20 -20 -22 -24 -19 -23 -19 -25 -23 -22 -21 -20 -20 -21 -20 -20 -19 -19 -19 -20 -20 -19 -18 -17 -16 -16 -16 -15 -13 -12 -11
-24 -25 -25 -25 -25 -25 -24 -24 -24 -23 -23 -23 -22 -22 -23 -23 -23 -23 -23 -24 -23 -23 -25 -25 -24 -24 -24 -24 -23 -23 -23 -23 -21 -16 -16 -19 -20 -23 -23 -23 -22 -21 -21 -21 -21 -23 -24 -24 -24 -22 -16 -14 -13 -14 -14 -15 -19 -24 -22 -24 -22 -25 -24 -25 -23 -23 -23 -21 -21 -20 -18 -19 -20 -20 -20 -19 -18 -18 -16 -15 -15 -14 -13 -12 -12
-25 -25 -25 -25 -25 -26 -25 -24 -24 -24 -24 -24 -23 -23 -23 -23 -22 -23 -23 -22 -21 -22 -22 -22 -23 -24 -24 -24 -24 -24 -25 -22 -16 -9 -9 -18 -23 -21 -22 -24 -24 -23 -23 -23 -23 -24 -25 -26 -22 -17 -16 -15 -14 -15 -16 -17 -17 -18 -22 -23 -23 -25 -24 -25 -24 -23 -23 -24 -23 -20 -22 -22 -21 -20 -19 -19 -18 -17 -16 -15 -15 -14 -13 -13 -12
-26 -27 -26 -26 -26 -26 -26 -25 -24 -24 -25 -24 -24 -23 -24 -22 -22 -23 -22 -22 -22 -22 -23 -23 -24 -24 -25 -25 -25 -25 -24 -22 -10 4 4 -0 -21 -24 -23 -23 -25 -24 -25 -26 -26 -23 -24 -25 -26 -20 -18 -16 -17 -17 -18 -18 -17 -16 -15 -15 -15 -18 -23 -22 -22 -22 -22 -23 -21 -22 -22 -22 -20 -19 -19 -17 -17 -16 -15 -14 -13 -13 -14 -14 -17
-27 -27 -27 -27 -26 -27 -26 -25 -25 -25 -25 -26 -25 -25 -24 -23 -23 -25 -23 -23 -24 -23 -24 -25 -25 -26 -26 -26 -26 -26 -25 -20 5 5 5 4 -11 -23 -28 -29 -25 -23 -26 -27 -28 -26 -26 -25 -25 -25 -24 -21 -21 -24 -21 -17 -17 -17 -16 -15 -14 -14 -14 -16 -18 -21 -22 -22 -23 -22 -21 -22 -20 -19 -18 -16 -15 -14 -14 -13 -13 -12 -13 -16 -16
-27 -27 -27 -27 -27 -27 -27 -26 -26 -26 -27 -26 -26 -25 -23 -24 -24 -24 -23 -24 -25 -25 -25 -26 -26 -26 -27 -27 -26 -27 -27 -21 4 1 3 3 1 -20 -29 -31 -25 -30 -25 -26 -28 -27 -28 -26 -25 -24 -25 -19 -18 -25 -29 -26 -18 -17 -17 -16 -15 -15 -14 -14 -13 -16 -19 -22 -22 -23 -21 -20 -19 -18 -16 -14 -12 -14 -13 -13 -12 -13 -16 -17 -18
-26 -27 -27 -27 -26 -27 -26 -26 -26 -27 -27 -27 -25 -25 -24 -24 -24 -24 -24 -24 -26 -26 -26 -26 -26 -28 -28 -29 -28 -28 -28 -22 1 -1 2 3 2 -9 -31 -31 -31 -29 -26 -29 -28 -28 -27 -27 -25 -25 -26 -26 -24 -25 -26 -26 -25 -25 -25 -26 -26 -20 -15 -16 -16 -16 -16 -19 -20 -21 -19 -17 -16 -15 -13 -10 -11 -13 -14 -14 -16 -18 -19 -19 -17
-25 -27 -27 -26 -26 -26 -26 -26 -27 -27 -28 -28 -27 -27 -26 -26 -26 -25 -25 -26 -25 -26 -27 -28 -28 -28 -29 -30 -29 -28 -28 -13 -0 -0 2 3 3 -10 -33 -31 -29 -26 -29 -29 -29 -28 -28 -26 -27 -26 -25 -27 -24 -21 -21 -21 -20 -19 -22 -25 -24 -24 -22 -22 -22 -20 -17 -16 -16 -15 -14 -12 -12 -10 -10 -10 -11 -12 -11 -16 -18 -18 -18 -20 -21
-25 -26 -26 -26 -26 -27 -26 -27 -28 -29 -28 -27 -26 -26 -26 -26 -28 -26 -26 -24 -25 -25 -27 -27 -29 -30 -27 -30 -30 -28 -27 -7 -1 0 1 3 -1 -26 -30 -33 -31 -25 -30 -30 -29 -27 -27 -26 -27 -26 -26 -26 -21 -18 -16 -15 -14 -21 -23 -24 -23 -23 -23 -18 -3 -1 -7 -7 -7 -7 -6 -11 -5 -10 -9 -11 -11 -10 -16 -19 -20 -23 -25 -27 -27
-26 -25 -26 -26 -26 -26 -26 -27 -27 -27 -27 -27 -26 -26 -27 -27 -26 -27 -28 -23 -25 -28 -29 -29 -28 -29 -29 -29 -30 -28 -28 -23 -4 -0 1 3 -9 -29 -33 -32 -32 -27 -31 -29 -28 -27 -26 -26 -26 -25 -26 -26 -20 -16 -7 -7 -16 -18 -22 -26 -25 -26 -24 -24 -9 -2 0 2 3 4 4 1 -6 -2 -3 -1 -4 -9 -21 -24 -25 -25 -27 -28 -28
-25 -26 -26 -26 -26 -25 -26 -26 -27 -27 -27 -28 -27 -27 -26 -27 -28 -28 -25 -28 -26 -29 -29 -30 -28 -28 -28 -29 -28 -28 -28 -24 -18 -1 1 1 -15 -28 -34 -32 -34 -25 -27 -29 -29 -28 -25 -20 -20 -25 -25 -24 -18 -14 1 -8 -14 -20 -23 -26 -29 -28 -26 -24 -24 -20 -4 -2 -1 -0 -0 -1 -2 -3 -3 -1 -2 -17 -23 -26 -25 -26 -27 -29 -28
-25 -25 -26 -26 -26 -26 -26 -27 -27 -28 -28 -28 -30 -27 -28 -28 -29 -27 -27 -29 -30 -28 -28 -30 -30 -29 -28 -28 -23 -27 -29 -26 -21 -3 -1 -0 -15 -29 -29 -33 -33 -27 -29 -28 -29 -29 -27 -23 -21 -20 -21 -19 -16 -0 -3 -7 -13 -20 -24 -29 -29 -30 -24 -23 -23 -22 -23 -24 -25 -24 -23 -22 -22 -23 -21 -20 -20 -20 -23 -26 -25 -26 -28 -27 -27
-24 -25 -25 -26 -26 -27 -27 -27 -28 -29 -28 -31 -31 -31 -29 -29 -29 -30 -29 -29 -30 -29 -29 -31 -32 -31 -29 -28 -28 -29 -30 -28 -24 -4 -2 -2 -2 -24 -30 -27 -28 -29 -32 -29 -28 -30 -28 -27 -23 -21 -19 -18 -10 -2 0 -1 -17 -22 -28 -30 -27 -25 -20 -24 -21 -20 -24 -25 -26 -25 -25 -24 -24 -24 -25 -25 -23 -22 -19 -22 -25 -28 -27 -27 -27
-25 -26 -26 -27 -28 -29 -28 -29 -30 -30 -30 -31 -29 -31 -30 -27 -28 -31 -32 -32 -31 -33 -32 -32 -33 -32 -31 -28 -29 -30 -29 -27 -25 -20 -5 -3 -2 -14 -25 -28 -32 -32 -31 -29 -30 -29 -27 -27 -27 -21 -20 -18 -16 -7 2 3 -13 -21 -26 -25 -21 -14 -16 -25 -24 -22 -26 -26 -26 -26 -26 -25 -25 -25 -25 -25 -23 -23 -23 -23 -25 -26 -26 -26 -27
-25 -25 -26 -28 -29 -30 -30 -30 -31 -31 -31 -31 -35 -33 -31 -32 -31 -32 -35 -34 -33 -34 -36 -33 -36 -35 -33 -32 -31 -31 -29 -24 -26 -22 -21 -6 -3 -8 -20 -25 -22 -30 -28 -31 -30 -29 -28 -26 -26 -22 -19 -17 -16 -4 3 -1 -15 -20 -17 -5 -10 -16 -20 -21 -27 -26 -27 -27 -27 -27 -27 -27 -27 -26 -25 -25 -24 -23 -24 -24 -25 -25 -25 -25 -25
-26 -27 -28 -29 -30 -31 -30 -31 -32 -32 -32 -33 -35 -35 -34 -34 -36 -33 -36 -38 -38 -39 -39 -38 -38 -38 -36 -35 -34 -33 -32 -31 -22 -23 -22 -18 -5 -4 -12 -17 -18 -24 -30 -30 -30 -26 -27 -26 -24 -20 -18 -17 -6 0 -1 -16 -19 -15 -2 -5 -17 -18 -20 -28 -24 -28 -29 -28 -28 -28 -28 -28 -27 -27 -26 -26 -25 -25 -25 -25 -25 -26 -25 -25 -24
-27 -28 -29 -30 -31 -32 -33 -35 -33 -33 -33 -33 -34 -35 -37 -37 -36 -33 -37 -37 -39 -39 -40 -39 -40 -39 -37 -33 -34 -34 -34 -35 -26 -23 -23 -22 -21 -5 -8 -18 -19 -25 -25 -28 -29 -26 -25 -26 -22 -18 -18 -10 -3 -3 -16 -19 -20 -17 -18 -18 -19 -21 -24 -27 -31 -29 -28 -29 -29 -30 -29 -28 -28 -28 -27 -26 -25 -26 -26 -26 -26 -27 -27 -27 -26
-29 -30 -31 -32 -32 -35 -36 -35 -36 -35 -34 -34 -34 -35 -34 -36 -37 -38 -36 -39 -40 -39 -39 -35 -36 -36 -37 -36 -34 -34 -34 -35 -34 -28 -24 -23 -22 -22 -21 -20 -20 -20 -23 -28 -24 -26 -20 -19 -19 -18 -19 -18 -18 -19 -21 -21 -20 -20 -20 -21 -21 -29 -28 -31 -30 -30 -31 -30 -30 -29 -29 -28 -28 -27 -26 -26 -26 -26 -27 -28 -28 -27 -27 -27 -27
-31 -32 -34 -32 -34 -35 -38 -38 -37 -36 -35 -36 -36 -38 -37 -35 -35 -37 -37 -37 -36 -36 -38 -35 -34 -35 -35 -38 -37 -34 -34 -37 -33 -33 -26 -25 -24 -23 -22 -21 -21 -20 -20 -21 -20 -20 -20 -20 -20 -20 -20 -20 -21 -24 -25 -23 -22 -22 -22 -23 -30 -29 -32 -31 -31 -32 -31 -30 -29 -29 -29 -28 -28 -27 -27 -27 -28 -29 -29 -29 -29 -29 -29 -29 -29
-32 -33 -33 -33 -37 -39 -40 -39 -38 -36 -37 -37 -37 -34 -34 -37 -36 -33 -34 -36 -37 -36 -35 -33 -35 -36 -36 -37 -37 -35 -35 -35 -34 -35 -33 -36 -35 -30 -28 -27 -22 -20 -23 -26 -23 -26 -25 -22 -21 -20 -20 -21 -23 -23 -24 -23 -25 -26 -30 -31 -31 -32 -29 -33 -32 -30 -29 -30 -30 -29 -29 -28 -27 -27 -29 -29 -30 -29 -29 -28 -29 -30 -29 -29 -30
-33 -33 -34 -35 -37 -37 -39 -29 -34 -39 -38 -39 -39 -39 -39 -37 -39 -37 -37 -39 -39 -39 -38 -36 -36 -36 -38 -39 -38 -37 -33 -34 -34 -35 -32 -34 -31 -30 -31 -29 -30 -31 -30 -30 -29 -27 -25 -20 -23 -28 -30 -30 -31 -34 -34 -33 -29 -28 -30 -32 -32 -30 -26 -24 -24 -30 -31 -32 -31 -30 -29 -29 -30 -30 -29 -30 -30 -30 -29 -29 -29 -30 -29 -30 -32
-33 -36 -36 -36 -37 -34 -36 -34 -37 -39 -40 -38 -39 -37 -38 -40 -38 -37 -38 -36 -38 -37 -37 -36 -35 -39 -38 -38 -38 -35 -33 -31 -30 -23 -25 -20 -20 -22 -27 -28 -28 -30 -23 -18 -21 -25 -27 -30 -31 -30 -34 -31 -31 -32 -33 -33 -31 -31 -33 -33 -34 -34 -34 -35 -34 -32 -31 -32 -32 -31 -30 -30 -30 -30 -30 -31 -31 -30 -30 -30 -30 -30 -30 -31 -33
-36 -36 -37 -36 -37 -35 -35 -37 -38 -36 -39 -39 -38 -38 -27 -25 -27 -34 -33 -24 -24 -24 -24 -33 -35 -35 -36 -33 -33 -31 -30 -28 -22 -19 -18 -18 -18 -18 -18 -18 -19 -20 -19 -19 -20 -25 -30 -33 -33 -34 -32 -34 -33 -32 -32 -32 -32 -31 -32 -28 -29 -33 -33 -33 -33 -31 -31 -31 -31 -31 -31 -31 -32 -31 -31 -31 -31 -30 -29 -27 -30 -31 -32 -33 -33
-35 -34 -35 -36 -35 -35 -37 -39 -39 -39 -41 -42 -40 -35 -35 -32 -23 -23 -22 -21 -20 -19 -18 -18 -18 -19 -24 -28 -27 -22 -21 -21 -19 -17 -17 -17 -17 -18 -18 -18 -19 -19 -19 -20 -26 -31 -31 -32 -31 -33 -33 -35 -34 -33 -32 -32 -32 -32 -31 -31 -33 -32 -30 -33 -32 -32 -31 -31 -31 -31 -31 -32 -32 -31 -32 -31 -31 -30 -30 -31 -32 -32 -33 -33 -33
-34 -34 -35 -36 -33 -33 -39 -37 -36 -38 -38 -40 -38 -35 -36 -37 -31 -27 -23 -22 -23 -21 -20 -20 -19 -19 -19 -19 -21 -25 -20 -18 -18 -17 -17 -17 -18 -19 -19 -18 -18 -18 -19 -20 -25 -29 -34 -33 -33 -33 -34 -34 -32 -32 -33 -33 -32 -33 -32 -32 -31 -32 -32 -31 -30 -33 -31 -32 -32 -32 -32 -32 -31 -31 -31 -31 -30 -31 -31 -31 -32 -32 -32 -32 -32
-37 -37 -36 -35 -35 -33 -36 -37 -36 -39 -38 -37 -37 -37 -38 -36 -37 -32 -30 -26 -25 -24 -23 -22 -20 -19 -19 -20 -21 -21 -21 -21 -20 -20 -20 -20 -20 -20 -20 -18 -18 -19 -20 -24 -31 -30 -33 -35 -34 -33 -35 -34 -33 -34 -33 -34 -33 -32 -33 -33 -32 -30 -30 -31 -30 -32 -32 -32 -31 -31 -31 -31 -31 -31 -31 -31 -32 -32 -31 -32 -31 -32 -32 -33 -32
-40 -38 -37 -36 -36 -38 -37 -39 -39 -40 -40 -40 -40 -42 -37 -37 -39 -39 -35 -32 -31 -30 -27 -25 -24 -24 -24 -24 -23 -23 -22 -22 -22 -22 -21 -21 -20 -19 -20 -20 -19 -19 -21 -27 -32 -31 -32 -33 -33 -33 -33 -33 -33 -33 -32 -32 -32 -32 -32 -32 -32 -31 -31 -32 -34 -32 -31 -31 -32 -32 -31 -32 -32 -32 -32 -32 -31 -32 -32 -32 -32 -33 -33 -32 -32
-42 -34 -32 -34 -40 -37 -41 -42 -42 -41 -42 -40 -37 -35 -36 -35 -34 -34 -36 -35 -34 -33 -32 -33 -28 -27 -26 -25 -25 -24 -24 -23 -22 -22 -21 -20 -20 -20 -19 -23 -28 -31 -33 -34 -33 -33 -32 -32 -32 -32 -34 -33 -32 -33 -32 -32 -32 -32 -32 -31 -31 -31 -31 -31 -31 -32 -31 -31 -32 -32 -32 -31 -32 -31 -31 -32 -32 -32 -32 -32 -32 -32 -32 -32 -31
-40 -39 -39 -36 -40 -43 -44 -43 -44 -42 -39 -40 -39 -37 -35 -34 -34 -35 -34 -35 -35 -34 -33 -32 -32 -27 -27 -26 -26 -25 -24 -24 -23 -22 -21 -21 -21 -21 -26 -30 -31 -31 -32 -33 -34 -32 -32 -32 -32 -32 -32 -32 -32 -32 -33 -32 -32 -32 -32 -32 -31 -31 -31 -31 -30 -31 -31 -31 -31 -30 -29 -31 -31 -31 -32 -32 -33 -32 -32 -31 -31 -30 -30 -30 -30
-40 -40 -42 -42 -43 -43 -44 -42 -43 -42 -32 -33 -34 -36 -35 -35 -34 -36 -36 -36 -35 -35 -34 -33 -32 -31 -29 -29 -27 -27 -26 -25 -24 -23 -22 -22 -22 -24 -31 -32 -31 -31 -32 -32 -33 -34 -33 -32 -32 -32 -32 -32 -32 -32 -32 -32 -32 -32 -29 -30 -31 -31 -31 -31 -30 -29 -30 -30 -30 -31 -32 -32 -32 -32 -32 -32 -31 -31 -30 -30 -30 -30 -29 -29 -28
-38 -37 -40 -42 -42 -42 -41 -41 -41 -31 -33 -34 -36 -37 -35 -36 -36 -35 -35 -34 -34 -33 -33 -33 -29 -32 -33 -32 -30 -29 -28 -27 -26 -26 -25 -25 -28 -35 -33 -34 -34 -33 -32 -32 -32 -33 -32 -31 -33 -32 -32 -32 -32 -32 -32 -32 -31 -31 -31 -31 -31 -31 -27 -28 -28 -30 -31 -31 -31 -31 -31 -31 -31 -31 -30 -31 -31 -30 -30 -30 -30 -30 -29 -29 -29
-41 -35 -34 -32 -32 -41 -41 -37 -36 -36 -36 -35 -36 -35 -34 -35 -36 -36 -36 -37 -36 -35 -34 -35 -34 -33 -32 -32 -32 -32 -31 -34 -36 -33 -33 -34 -34 -36 -36 -35 -34 -33 -32 -32 -32 -31 -32 -32 -31 -31 -31 -32 -31 -31 -31 -31 -31 -31 -31 -31 -31 -31 -31 -31 -31 -31 -31 -31 -31 -31 -31 -30 -30 -30 -30 -30 -30 -30 -30 -30 -29 -29 -29 -29 -29
-38 -39 -34 -30 -33 -33 -34 -34 -35 -36 -35 -37 -36 -38 -37 -36 -36 -37 -37 -37 -36 -35 -35 -34 -33 -33 -32 -36 -33 -36 -34 -32 -32 -32 -32 -32 -33 -33 -36 -34 -33 -33 -32 -32 -32 -32 -32 -32 -31 -31 -31 -32 -31 -31 -31 -31 -31 -31 -31 -31 -31 -31 -30 -30 -30 -31 -31 -30 -30 -30 -30 -30 -30 -30 -30 -29 -29 -29 -29 -28 -28 -28 -28 -29 -29
-37 -38 -34 -31 -32 -35 -34 -35 -35 -36 -38 -37 -36 -37 -36 -35 -35 -36 -36 -35 -35 -34 -34 -34 -33 -32 -31 -30 -27 -27 -29 -30 -30 -31 -31 -31 -31 -32 -33 -33 -32 -32 -31 -31 -31 -31 -32 -31 -31 -31 -31 -31 -31 -31 -31 -31 -31 -31 -31 -30 -30 -30 -30 -30 -30 -30 -30 -30 -30 -30 -30 -30 -29 -29 -30 -29 -26 -26 -27 -27 -28 -28 -28 -28 -28
-37 -38 -37 -36 -33 -35 -36 -35 -35 -33 -35 -35 -36 -36 -35 -34 -35 -36 -35 -34 -34 -33 -33 -33 -32 -32 -30 -27 -26 -26 -27 -29 -30 -30 -30 -30 -31 -31 -30 -31 -31 -31 -31 -31 -31 -31 -31 -31 -31 -30 -30 -30 -30 -30 -30 -31 -31 -31 -31 -31 -30 -30 -30 -30 -30 -30 -30 -30 -30 -30 -30 -29 -28 -27 -27 -25 -27 -27 -28 -28 -28 -28 -28 -29 -28
-36 -37 -37 -36 -35 -35 -34 -34 -36 -37 -37 -37 -35 -33 -33 -34 -35 -34 -34 -33 -33 -33 -33 -32 -32 -31 -31 -29 -28 -28 -29 -30 -30 -30 -30 -30 -30 -30 -30 -30 -30 -30 -30 -30 -30 -30 -30 -30 -30 -29 -29 -29 -29 -29 -29 -29 -30 -30 -30 -30 -30 -30 -30 -29 -29 -29 -30 -30 -30 -29 -29 -29 -28 -28 -28 -28 -27 -27 -28 -28 -28 -29 -29 -29 -29
-36 -36 -35 -35 -35 -35 -34 -36 -36 -35 -36 -33 -33 -33 -33 -34 -34 -35 -34 -34 -33 -33 -33 -32 -32 -31 -31 -30 -30 -31 -32 -32 -32 -32 -31 -31 -30 -30 -30 -29 -29 -30 -30 -30 -29 -30 -30 -30 -30 -29 -29 -29 -28 -30 -29 -28 -29 -30 -30 -30 -29 -29 -29 -29 -29 -29 -29 -29 -29 -29 -29 -28 -28 -28 -27 -27 -28 -28 -28 -29 -29 -29 -29 -29 -29
-37 -36 -36 -36 -35 -36 -35 -36 -35 -35 -33 -34 -35 -34 -33 -34 -33 -33 -33 -33 -32 -32 -32 -31 -31 -31 -31 -31 -31 -32 -31 -31 -31 -30 -30 -30 -30 -30 -29 -29 -29 -29 -29 -29 -29 -30 -30 -30 -29 -30 -29 -29 -28 -28 -29 -28 -29 -29 -29 -29 -30 -29 -29 -29 -29 -28 -28 -29 -29 -28 -28 -28 -29 -28 -28 -28 -27 -28 -28 -29 -29 -28 -29 -29 -29
-35 -37 -35 -35 -35 -35 -35 -36 -35 -35 -35 -34 -34 -34 -34 -34 -34 -34 -33 -32 -32 -32 -32 -31 -31 -31 -31 -30 -30 -30 -30 -31 -30 -30 -30 -29 -29 -29 -28 -28 -28 -29 -29 -28 -29 -30 -29 -29 -29 -29 -29 -29 -29 -28 -28 -29 -29 -29 -29 -29 -28 -28 -27 -27 -28 -28 -28 -28 -28 -28 -28 -28 -28 -27 -27 -27 -27 -27 -28 -29 -29 -29 -29 -29 -29
-37 -36 -34 -35 -35 -34 -35 -34 -36 -35 -36 -35 -34 -34 -33 -33 -33 -32 -32 -31 -31 -31 -31 -31 -31 -30 -30 -30 -30 -30 -29 -29 -29 -29 -29 -30 -29 -29 -29 -29 -28 -28 -28 -28 -29 -29 -29 -29 -29 -29 -29 -29 -28 -29 -28 -28 -28 -28 -28 -28 -28 -28 -28 -27 -27 -28 -28 -27 -27 -28 -28 -28 -28 -28 -27 -27 -27 -28 -28 -29 -29 -29 -29 -29 -29
-35 -35 -35 -34 -36 -35 -35 -36 -34 -33 -33 -33 -33 -33 -32 -32 -32 -32 -32 -31 -31 -31 -31 -30 -30 -30 -30 -29 -29 -29 -29 -29 -29 -28 -28 -28 -28 -28 -28 -29 -28 -28 -28 -28 -28 -28 -28 -29 -29 -29 -29 -29 -28 -28 -28 -28 -28 -28 -28 -28 -28 -28 -27 -27 -27 -28 -27 -27 -27 -27 -27 -28 -28 -27 -27 -28 -28 -28 -29 -29 -29 -29 -29 -29 -29
-34 -35 -35 -34 -34 -34 -34 -34 -33 -34 -33 -33 -33 -32 -32 -32 -32 -31 -31 -31 -31 -30 -30 -30 -30 -30 -30 -29 -29 -29 -28 -28 -29 -28 -28 -28 -28 -28 -27 -28 -28 -28 -28 -28 -28 -28 -28 -28 -28 -28 -28 -28 -28 -28 -28 -28 -28 -28 -28 -28 -27 -27 -26 -26 -26 -26 -26 -25 -26 -26 -27 -27 -28 -28 -27 -28 -28 -28 -29 -29 -30 -30 -29 -29 -29
-33 -33 -34 -33 -33 -33 -33 -33 -33 -33 -33 -33 -33 -33 -32 -32 -31 -31 -31 -31 -31 -30 -30 -30 -29 -29 -29 -29 -29 -28 -28 -28 -28 -28 -28 -27 -27 -27 -27 -27 -28 -28 -28 -28 -27 -27 -28 -28 -29 -29 -29 -29 -29 -29 -28 -28 -28 -28 -28 -28 -27 -26 -26 -26 -25 -25 -25 -26 -26 -26 -27 -27 -27 -27 -28 -28 -29 -29 -30 -30 -30 -29 -29 -30 -29
-32 -33 -33 -33 -33 -33 -33 -34 -33 -33 -33 -33 -33 -33 -32 -32 -31 -31 -30 -30 -30 -30 -29 -29 -29 -29 -29 -28 -28 -28 -28 -28 -27 -27 -27 -27 -27 -27 -27 -28 -28 -28 -28 -28 -28 -28 -28 -28 -28 -28 -28 -28 -28 -28 -28 -28 -28 -28 -27 -27 -26 -26 -26 -26 -26 -26 -25 -25 -26 -26 -26 -27 -27 -28 -28 -29 -29 -30 -29 -29 -29 -30 -30 -29 -29